Everett, WA

2:44 AM PDT on September 24, 2017 (GMT -0700)
Snohomish County

Weather History for KPAE - May, 2014

Change the Weather History Date:

Friday, May 2, 2014

  Actual Average Record
Temperature  
Mean Temperature 59 °F -  
Max Temperature 66 °F 62 °F 82 °F (2016)
Min Temperature 52 °F 44 °F 34 °F (1951)
Degree Days  
Heating Degree Days 6    
Growing Degree Days 9 (Base 50)    
Moisture  
Dew Point 48 °F    
Average Humidity 68    
Maximum Humidity 93    
Minimum Humidity 38    
Precipitation  
Precipitation 0.06 in - - ()
Sea Level Pressure  
Sea Level Pressure 29.98 in    
Wind  
Wind Speed 9 mph (South)    
Max Wind Speed 13 mph    
Max Gust Speed -    
Visibility 10 miles    
Events Rain    
Averages and records for this station are not official NWS values.
T = Trace of Precipitation, MM = Missing Value Source: NWS Daily Summary

Daily Weather History Graph

Daily Weather History Graph

Search for Another Location

Airport or City:

Trip Planner

Search our weather history database for the weather conditions in past years. The results will help you decide how hot, cold, wet, or windy it might be!

Date:

Astronomy

May. 02, 2014 Rise Set
Actual Time 5:49 AM PDT 8:23 PM PDT
Civil Twilight 5:14 AM PDT 8:58 PM PDT
Nautical Twilight 4:30 AM PDT 9:42 PM PDT
Astronomical Twilight 3:39 AM PDT 10:34 PM PDT
Moon 8:26 AM PDT (5/2) 11:54 PM PDT (5/2)
Length of Visible Light 15h 44m
Length of Day
14h 34m
Waxing Crescent, 13% of the Moon is Illuminated
May 2
Waxing Crescent
May 6
First Quarter
May 14
Full
May 21
Last Quarter
May 28
New

Hourly Weather History & Observations

Time (PDT) Temp. Dew Point Humidity Pressure Visibility Wind Dir Wind Speed Gust Speed Precip Events Conditions
12:53 AM 66.0 °F 44.1 °F 45% 30.01 in 10.0 mi SSE 9.2 mph - N/A   Clear
1:53 AM 66.0 °F 39.9 °F 38% 30.00 in 10.0 mi South 8.1 mph - N/A   Clear
2:53 AM 62.1 °F 41.0 °F 46% 30.01 in 10.0 mi South 9.2 mph - N/A   Clear
3:53 AM 62.1 °F 39.9 °F 44% 30.01 in 10.0 mi SSE 11.5 mph - N/A   Clear
4:53 AM 61.0 °F 39.9 °F 46% 30.01 in 10.0 mi SSE 12.7 mph - N/A   Clear
5:53 AM 57.9 °F 43.0 °F 58% 30.03 in 10.0 mi South 11.5 mph - N/A   Clear
6:53 AM 57.0 °F 46.0 °F 67% 30.04 in 10.0 mi South 10.4 mph - N/A   Clear
7:53 AM 57.9 °F 48.0 °F 70% 30.05 in 10.0 mi South 11.5 mph - N/A   Scattered Clouds
8:53 AM 57.9 °F 48.9 °F 72% 30.05 in 10.0 mi South 12.7 mph - N/A   Scattered Clouds
9:53 AM 60.1 °F 48.9 °F 67% 30.05 in 10.0 mi SSE 12.7 mph - N/A   Partly Cloudy
10:53 AM 62.1 °F 50.0 °F 65% 30.04 in 10.0 mi South 5.8 mph - N/A   Partly Cloudy
11:53 AM 62.1 °F 48.9 °F 62% 30.04 in 10.0 mi WSW 10.4 mph - N/A   Clear
12:53 PM 64.0 °F 50.0 °F 60% 30.02 in 10.0 mi West 8.1 mph - N/A   Clear
1:53 PM 64.9 °F 50.0 °F 58% 30.00 in 10.0 mi West 8.1 mph - N/A   Clear
2:53 PM 64.9 °F 48.9 °F 56% 29.98 in 10.0 mi WSW 10.4 mph - N/A   Clear
3:53 PM 64.0 °F 51.1 °F 63% 29.97 in 10.0 mi Variable 4.6 mph - N/A   Mostly Cloudy
4:53 PM 62.6 °F 51.8 °F 68% 29.95 in 10.0 mi NW 4.6 mph - N/A   Scattered Clouds
5:53 PM 60.1 °F 51.1 °F 72% 29.94 in 10.0 mi North 5.8 mph - 0.00 in   Overcast
6:53 PM 57.0 °F 51.1 °F 81% 29.92 in 10.0 mi North 5.8 mph - 0.00 in   Overcast
7:53 PM 55.9 °F 51.1 °F 84% 29.92 in 10.0 mi North 4.6 mph - N/A   Overcast
8:53 PM 55.0 °F 51.1 °F 86% 29.92 in 10.0 mi NNE 5.8 mph - 0.00 in Rain Light Rain
9:00 PM 55.0 °F 51.1 °F 86% 29.92 in 10.0 mi NNE 6.9 mph - 0.00 in   Overcast
9:53 PM 54.0 °F 50.0 °F 86% 29.93 in 10.0 mi NNE 5.8 mph - 0.00 in   Overcast
10:37 PM 53.1 °F 51.1 °F 93% 29.92 in 10.0 mi Variable 3.5 mph - 0.06 in Rain Light Rain
10:53 PM 52.0 °F 50.0 °F 93% 29.93 in 10.0 mi NNE 6.9 mph - 0.06 in Rain Light Rain
11:53 PM 52.0 °F 48.9 °F 89% 29.93 in 10.0 mi ENE 4.6 mph - 0.00 in Rain Light Rain